Location: Il Ritiro
(43.4167°N, 13.1333°E)
Time: 16:27:28
(UTC+00:00)

Cosmos 2228 Rocket - Pass Details

Date: 05 July 2020
Orbit: 617 x 653 km, 82.5° (Epoch: 11 August)

Event Time Altitude Azimuth Distance (km) Brightness Sun altitude
Rises 22:52:02 0° 360° (N) 2,985 8.0 -23.8°
Reaches altitude 10° 22:54:29 10° 9° (N) 2,067 6.8 -23.8°
Maximum altitude 22:58:41 35° 75° (ENE) 1,055 4.3 -23.8°
Enters shadow 22:59:21 33° 94° (E) 1,089 4.2 -23.9°
